Time,TemperatureF,DewpointF,PressureIn,WindDirection,WindDirectionDegrees,WindSpeedMPH,WindSpeedGustMPH,Humidity,HourlyPrecipIn,Conditions,Clouds,dailyrainin,SolarRadiationWatts/m^2,SoftwareType,DateUTC
2013-05-01 00:01:00,47.7,31.0,30.38,South,178,0.0,0.0,52,0.00,,CLR,0.00,0.00,VWS V14.01,2013-05-01 04:01:00,
2013-05-01 00:02:00,47.6,30.9,30.38,South,178,0.0,0.0,52,0.00,,CLR,0.00,0.00,VWS V14.01,2013-05-01 04:02:00,
2013-05-01 00:07:00,47.6,31.3,30.38,South,178,0.0,0.0,53,0.00,,CLR,0.00,0.00,VWS V14.01,2013-05-01 04:07:00,
2013-05-01 00:12:00,47.5,31.2,30.38,South,178,0.0,0.0,53,0.00,,CLR,0.00,0.00,VWS V14.01,2013-05-01 04:12:00,
2013-05-01 00:17:00,47.5,31.7,30.38,South,178,0.0,0.0,54,0.00,,CLR,0.00,0.00,VWS V14.01,2013-05-01 04:17:00,
2013-05-01 00:22:00,47.5,31.7,30.38,South,178,0.0,0.0,54,0.00,,CLR,0.00,0.00,VWS V14.01,2013-05-01 04:22:00,
2013-05-01 00:27:00,47.6,31.8,30.38,South,178,0.0,0.0,54,0.00,,CLR,0.00,0.00,VWS V14.01,2013-05-01 04:27:00,
2013-05-01 00:32:00,47.6,31.8,30.38,South,178,0.0,0.0,54,0.00,,CLR,0.00,0.00,VWS V14.01,2013-05-01 04:32:00,
2013-05-01 00:37:00,47.6,32.2,30.38,South,178,0.0,0.0,55,0.00,,CLR,0.00,0.00,VWS V14.01,2013-05-01 04:37:00,
2013-05-01 00:42:00,47.5,32.2,30.38,South,178,0.0,0.0,55,0.00,,CLR,0.00,0.00,VWS V14.01,2013-05-01 04:42:00,
2013-05-01 00:47:00,47.5,32.2,30.38,South,178,0.0,0.0,55,0.00,,CLR,0.00,0.00,VWS V14.01,2013-05-01 04:47:00,
2013-05-01 00:53:00,47.4,31.6,30.38,South,178,0.0,0.0,54,0.00,,CLR,0.00,0.00,VWS V14.01,2013-05-01 04:53:00,
2013-05-01 00:58:00,47.4,31.6,30.38,South,178,0.0,0.0,54,0.00,,CLR,0.00,0.00,VWS V14.01,2013-05-01 04:58:00,
2013-05-01 01:03:00,47.2,31.9,30.38,South,178,0.0,0.0,55,0.00,,CLR,0.00,0.00,VWS V14.01,2013-05-01 05:03:00,
2013-05-01 01:08:00,47.0,31.7,30.38,South,178,0.0,0.0,55,0.00,,CLR,0.00,0.00,VWS V14.01,2013-05-01 05:08:00,
2013-05-01 01:13:00,46.9,31.6,30.38,South,178,0.0,0.0,55,0.00,,CLR,0.00,0.00,VWS V14.01,2013-05-01 05:13:00,
2013-05-01 01:18:00,46.7,31.4,30.38,South,178,0.0,0.0,55,0.00,,CLR,0.00,0.00,VWS V14.01,2013-05-01 05:18:00,
2013-05-01 01:23:00,46.4,31.6,30.38,South,178,0.0,0.0,56,0.00,,CLR,0.00,0.00,VWS V14.01,2013-05-01 05:23:00,
2013-05-01 01:28:00,46.3,31.9,30.38,South,178,0.0,0.0,57,0.00,,CLR,0.00,0.00,VWS V14.01,2013-05-01 05:28:00,
2013-05-01 01:33:00,46.2,32.2,30.39,South,178,0.0,0.0,58,0.00,,CLR,0.00,0.00,VWS V14.01,2013-05-01 05:33:00,
2013-05-01 01:38:00,46.0,32.5,30.39,South,178,0.0,0.0,59,0.00,,CLR,0.00,0.00,VWS V14.01,2013-05-01 05:38:00,
2013-05-01 01:43:00,45.9,32.8,30.39,South,178,0.0,0.0,60,0.00,,CLR,0.00,0.00,VWS V14.01,2013-05-01 05:43:00,
2013-05-01 01:48:00,45.9,32.8,30.39,South,178,0.0,0.0,60,0.00,,CLR,0.00,0.00,VWS V14.01,2013-05-01 05:48:00,
2013-05-01 01:53:00,45.8,32.7,30.39,South,178,0.0,0.0,60,0.00,,CLR,0.00,0.00,VWS V14.01,2013-05-01 05:53:00,
2013-05-01 01:58:00,45.6,32.5,30.39,South,178,0.0,0.0,60,0.00,,CLR,0.00,0.00,VWS V14.01,2013-05-01 05:58:00,
2013-05-01 02:03:00,45.4,32.8,30.39,South,178,0.0,0.0,61,0.00,,CLR,0.00,0.00,VWS V14.01,2013-05-01 06:03:00,
2013-05-01 02:08:00,45.1,32.5,30.39,South,178,0.0,0.0,61,0.00,,CLR,0.00,0.00,VWS V14.01,2013-05-01 06:08:00,
2013-05-01 02:13:00,44.9,32.7,30.38,South,178,0.0,0.0,62,0.00,,CLR,0.00,0.00,VWS V14.01,2013-05-01 06:13:00,
2013-05-01 02:18:00,44.7,32.9,30.39,South,178,0.0,0.0,63,0.00,,CLR,0.00,0.00,VWS V14.01,2013-05-01 06:18:00,
2013-05-01 02:23:00,44.7,32.5,30.39,South,178,0.0,0.0,62,0.00,,CLR,0.00,0.00,VWS V14.01,2013-05-01 06:23:00,
2013-05-01 02:28:00,44.5,32.3,30.40,South,178,0.0,0.0,62,0.00,,CLR,0.00,0.00,VWS V14.01,2013-05-01 06:28:00,
2013-05-01 02:33:00,44.3,32.5,30.40,South,178,0.0,0.0,63,0.00,,CLR,0.00,0.00,VWS V14.01,2013-05-01 06:33:00,
2013-05-01 02:38:00,44.1,32.7,30.40,South,178,0.0,0.0,64,0.00,,CLR,0.00,0.00,VWS V14.01,2013-05-01 06:38:00,
2013-05-01 02:43:00,43.9,32.5,30.40,South,178,0.0,0.0,64,0.00,,CLR,0.00,0.00,VWS V14.01,2013-05-01 06:43:00,
2013-05-01 02:48:00,43.6,32.6,30.40,South,178,0.0,0.0,65,0.00,,CLR,0.00,0.00,VWS V14.01,2013-05-01 06:48:00,
2013-05-01 02:53:00,43.4,32.8,30.40,South,178,0.0,0.0,66,0.00,,CLR,0.00,0.00,VWS V14.01,2013-05-01 06:53:00,
2013-05-01 02:58:00,43.1,32.9,30.40,South,178,0.0,0.0,67,0.00,,CLR,0.00,0.00,VWS V14.01,2013-05-01 06:58:00,
2013-05-01 03:03:00,42.9,33.1,30.40,South,178,0.0,0.0,68,0.00,,CLR,0.00,0.00,VWS V14.01,2013-05-01 07:03:00,
2013-05-01 03:08:00,42.6,32.8,30.40,South,178,0.0,0.0,68,0.00,,CLR,0.00,0.00,VWS V14.01,2013-05-01 07:08:00,
2013-05-01 03:14:00,42.4,32.2,30.40,South,178,0.0,0.0,67,0.00,,CLR,0.00,0.00,VWS V14.01,2013-05-01 07:14:00,
2013-05-01 03:19:00,42.0,32.6,30.41,South,178,0.0,0.0,69,0.00,,CLR,0.00,0.00,VWS V14.01,2013-05-01 07:19:00,
2013-05-01 03:24:00,41.8,32.4,30.41,South,178,0.0,0.0,69,0.00,,CLR,0.00,0.00,VWS V14.01,2013-05-01 07:24:00,
2013-05-01 03:29:00,41.5,32.5,30.41,South,178,0.0,0.0,70,0.00,,CLR,0.00,0.00,VWS V14.01,2013-05-01 07:29:00,
2013-05-01 03:34:00,41.3,32.6,30.41,South,178,0.0,0.0,71,0.00,,CLR,0.00,0.00,VWS V14.01,2013-05-01 07:34:00,
2013-05-01 03:39:00,41.1,33.1,30.41,South,178,0.0,0.0,73,0.00,,CLR,0.00,0.00,VWS V14.01,2013-05-01 07:39:00,
2013-05-01 03:44:00,40.9,32.6,30.42,South,178,0.0,0.0,72,0.00,,CLR,0.00,0.00,VWS V14.01,2013-05-01 07:44:00,
2013-05-01 03:49:00,40.7,32.7,30.42,South,178,0.0,0.0,73,0.00,,CLR,0.00,0.00,VWS V14.01,2013-05-01 07:49:00,
2013-05-01 03:54:00,40.5,32.5,30.42,South,178,0.0,0.0,73,0.00,,CLR,0.00,0.00,VWS V14.01,2013-05-01 07:54:00,
2013-05-01 03:59:00,40.2,32.6,30.42,South,178,0.0,0.0,74,0.00,,CLR,0.00,0.00,VWS V14.01,2013-05-01 07:59:00,
2013-05-01 04:04:00,40.1,32.5,30.42,South,178,0.0,0.0,74,0.00,,CLR,0.00,0.00,VWS V14.01,2013-05-01 08:04:00,
2013-05-01 04:09:00,40.0,32.7,30.43,South,178,0.0,0.0,75,0.00,,CLR,0.00,0.00,VWS V14.01,2013-05-01 08:09:00,
2013-05-01 04:14:00,39.7,32.4,30.43,South,178,0.0,0.0,75,0.00,,CLR,0.00,0.00,VWS V14.01,2013-05-01 08:14:00,
2013-05-01 04:19:00,39.5,32.2,30.43,South,178,0.0,0.0,75,0.00,,CLR,0.00,0.00,VWS V14.01,2013-05-01 08:19:00,
2013-05-01 04:24:00,39.2,32.0,30.43,South,178,0.0,0.0,75,0.00,,CLR,0.00,0.00,VWS V14.01,2013-05-01 08:24:00,
2013-05-01 04:29:00,39.0,31.8,30.43,South,178,0.0,0.0,75,0.00,,CLR,0.00,0.00,VWS V14.01,2013-05-01 08:29:00,
2013-05-01 04:34:00,38.8,31.9,30.43,South,178,0.0,0.0,76,0.00,,CLR,0.00,0.00,VWS V14.01,2013-05-01 08:34:00,
2013-05-01 04:39:00,38.6,31.7,30.42,South,178,0.0,0.0,76,0.00,,CLR,0.00,0.00,VWS V14.01,2013-05-01 08:39:00,
2013-05-01 04:44:00,38.6,32.0,30.42,South,178,0.0,0.0,77,0.00,,CLR,0.00,0.00,VWS V14.01,2013-05-01 08:44:00,
2013-05-01 04:49:00,38.4,31.8,30.43,South,178,0.0,0.0,77,0.00,,CLR,0.00,0.00,VWS V14.01,2013-05-01 08:49:00,
2013-05-01 04:54:00,38.3,31.7,30.43,South,178,0.0,0.0,77,0.00,,CLR,0.00,0.00,VWS V14.01,2013-05-01 08:54:00,
2013-05-01 04:59:00,38.2,32.0,30.43,South,178,0.0,0.0,78,0.00,,CLR,0.00,0.00,VWS V14.01,2013-05-01 08:59:00,
2013-05-01 05:04:00,38.1,31.9,30.43,South,178,0.0,0.0,78,0.00,,CLR,0.00,0.00,VWS V14.01,2013-05-01 09:04:00,
2013-05-01 05:09:00,37.9,32.0,30.44,South,178,0.0,0.0,79,0.00,,CLR,0.00,0.00,VWS V14.01,2013-05-01 09:09:00,
2013-05-01 05:14:00,37.7,31.8,30.44,South,178,0.0,0.0,79,0.00,,CLR,0.00,0.00,VWS V14.01,2013-05-01 09:14:00,
2013-05-01 05:20:00,37.6,32.0,30.44,South,178,0.0,0.0,80,0.00,,CLR,0.00,0.00,VWS V14.01,2013-05-01 09:20:00,
2013-05-01 05:25:00,37.5,32.5,30.44,South,178,0.0,0.0,82,0.00,,CLR,0.00,0.00,VWS V14.01,2013-05-01 09:25:00,
2013-05-01 05:30:00,37.4,32.4,30.44,South,178,0.0,0.0,82,0.00,,CLR,0.00,0.00,VWS V14.01,2013-05-01 09:30:00,
2013-05-01 05:35:00,37.3,32.3,30.44,South,178,0.0,0.0,82,0.00,,CLR,0.00,0.00,VWS V14.01,2013-05-01 09:35:00,
2013-05-01 05:40:00,37.2,32.2,30.44,South,178,0.0,0.0,82,0.00,,CLR,0.00,0.00,VWS V14.01,2013-05-01 09:40:00,
2013-05-01 05:45:00,37.3,32.0,30.44,South,178,0.0,0.0,81,0.00,,CLR,0.00,5.00,VWS V14.01,2013-05-01 09:45:00,
2013-05-01 05:50:00,37.4,32.1,30.44,South,178,0.0,0.0,81,0.00,,CLR,0.00,7.00,VWS V14.01,2013-05-01 09:50:00,
2013-05-01 05:55:00,37.4,32.7,30.44,South,178,0.0,0.0,83,0.00,,CLR,0.00,11.00,VWS V14.01,2013-05-01 09:55:00,
2013-05-01 06:00:00,37.3,32.6,30.44,South,178,0.0,0.0,83,0.00,,CLR,0.00,12.00,VWS V14.01,2013-05-01 10:00:00,
2013-05-01 06:05:00,37.1,32.4,30.44,South,178,0.0,0.0,83,0.00,,CLR,0.00,16.00,VWS V14.01,2013-05-01 10:05:00,
2013-05-01 06:10:00,37.0,32.3,30.44,South,178,0.0,0.0,83,0.00,,CLR,0.00,18.00,VWS V14.01,2013-05-01 10:10:00,
2013-05-01 06:15:00,36.9,32.2,30.45,South,178,0.0,0.0,83,0.00,,CLR,0.00,19.00,VWS V14.01,2013-05-01 10:15:00,
2013-05-01 06:20:00,36.9,32.2,30.45,South,178,0.0,0.0,83,0.00,,CLR,0.00,23.00,VWS V14.01,2013-05-01 10:20:00,
2013-05-01 06:25:00,37.2,32.5,30.45,South,178,0.0,0.0,83,0.00,,CLR,0.00,25.00,VWS V14.01,2013-05-01 10:25:00,
2013-05-01 06:30:00,37.4,32.7,30.45,South,178,0.0,0.0,83,0.00,,CLR,0.00,28.00,VWS V14.01,2013-05-01 10:30:00,
2013-05-01 06:35:00,37.6,32.6,30.45,South,178,0.0,0.0,82,0.00,,CLR,0.00,114.00,VWS V14.01,2013-05-01 10:35:00,
2013-05-01 06:40:00,38.0,33.3,30.45,South,178,0.0,0.0,83,0.00,,CLR,0.00,155.00,VWS V14.01,2013-05-01 10:40:00,
2013-05-01 06:45:00,39.1,34.4,30.45,South,178,0.0,0.0,83,0.00,,CLR,0.00,174.00,VWS V14.01,2013-05-01 10:45:00,
2013-05-01 06:50:00,40.6,35.2,30.45,South,178,0.0,0.0,81,0.00,,CLR,0.00,193.00,VWS V14.01,2013-05-01 10:50:00,
2013-05-01 06:55:00,41.6,35.6,30.45,South,178,0.0,0.0,79,0.00,,CLR,0.00,214.00,VWS V14.01,2013-05-01 10:55:00,
2013-05-01 07:00:00,42.4,36.0,30.46,South,178,0.0,0.0,78,0.00,,CLR,0.00,234.00,VWS V14.01,2013-05-01 11:00:00,
2013-05-01 07:05:00,42.9,36.2,30.46,South,178,0.0,0.0,77,0.00,,CLR,0.00,253.00,VWS V14.01,2013-05-01 11:05:00,
2013-05-01 07:10:00,43.7,36.3,30.46,South,178,0.0,0.0,75,0.00,,CLR,0.00,272.00,VWS V14.01,2013-05-01 11:10:00,
2013-05-01 07:15:00,44.3,36.5,30.46,South,178,0.0,0.0,74,0.00,,CLR,0.00,288.00,VWS V14.01,2013-05-01 11:15:00,
2013-05-01 07:20:00,45.2,36.0,30.46,SSE,167,0.0,0.0,70,0.00,,CLR,0.00,309.00,VWS V14.01,2013-05-01 11:20:00,
2013-05-01 07:25:00,46.3,36.3,30.46,SSE,167,0.0,0.0,68,0.00,,CLR,0.00,327.00,VWS V14.01,2013-05-01 11:25:00,
2013-05-01 07:30:00,47.5,36.7,30.46,SSE,167,0.0,0.0,66,0.00,,CLR,0.00,346.00,VWS V14.01,2013-05-01 11:30:00,
2013-05-01 07:35:00,48.2,37.8,30.47,SSE,167,0.0,0.0,67,0.00,,CLR,0.00,364.00,VWS V14.01,2013-05-01 11:35:00,
2013-05-01 07:40:00,48.8,38.0,30.47,SSE,167,0.0,0.0,66,0.00,,CLR,0.00,376.00,VWS V14.01,2013-05-01 11:40:00,
2013-05-01 07:45:00,49.5,38.2,30.47,SSE,167,0.0,1.0,65,0.00,,CLR,0.00,357.00,VWS V14.01,2013-05-01 11:45:00,
2013-05-01 07:50:00,50.1,38.8,30.47,SSE,167,0.0,0.0,65,0.00,,CLR,0.00,330.00,VWS V14.01,2013-05-01 11:50:00,
2013-05-01 07:55:00,50.7,39.0,30.47,SSE,167,0.0,1.0,64,0.00,,CLR,0.00,336.00,VWS V14.01,2013-05-01 11:55:00,
2013-05-01 08:00:00,51.1,38.5,30.47,SSE,168,0.0,1.0,62,0.00,,CLR,0.00,385.00,VWS V14.01,2013-05-01 12:00:00,
2013-05-01 08:05:00,51.5,38.9,30.48,North,355,0.0,4.0,62,0.00,,CLR,0.00,264.00,VWS V14.01,2013-05-01 12:05:00,
2013-05-01 08:10:00,51.6,37.8,30.48,NE,35,0.0,0.0,59,0.00,,CLR,0.00,385.00,VWS V14.01,2013-05-01 12:10:00,
2013-05-01 08:16:00,51.9,38.0,30.48,NE,35,0.0,1.0,59,0.00,,CLR,0.00,248.00,VWS V14.01,2013-05-01 12:16:00,
2013-05-01 08:21:00,52.2,37.9,30.48,NE,35,0.0,1.0,58,0.00,,CLR,0.00,253.00,VWS V14.01,2013-05-01 12:21:00,
2013-05-01 08:26:00,52.6,37.8,30.48,North,355,0.0,3.0,57,0.00,,CLR,0.00,473.00,VWS V14.01,2013-05-01 12:26:00,
2013-05-01 08:31:00,52.9,37.7,30.48,North,355,0.0,0.0,56,0.00,,CLR,0.00,547.00,VWS V14.01,2013-05-01 12:31:00,
2013-05-01 08:36:00,53.6,38.3,30.48,NNW,329,4.0,4.0,56,0.00,,CLR,0.00,578.00,VWS V14.01,2013-05-01 12:36:00,
2013-05-01 08:41:00,54.6,37.8,30.48,NNW,329,0.0,4.0,53,0.00,,CLR,0.00,598.00,VWS V14.01,2013-05-01 12:41:00,
2013-05-01 08:46:00,55.5,37.7,30.48,North,350,0.0,4.0,51,0.00,,CLR,0.00,613.00,VWS V14.01,2013-05-01 12:46:00,
2013-05-01 08:51:00,56.2,37.8,30.48,NNE,24,0.0,3.0,50,0.00,,CLR,0.00,631.00,VWS V14.01,2013-05-01 12:51:00,
2013-05-01 08:56:00,56.5,38.1,30.48,NNE,30,0.0,3.0,50,0.00,,CLR,0.00,645.00,VWS V14.01,2013-05-01 12:56:00,
2013-05-01 09:01:00,57.0,37.0,30.48,NNE,30,0.0,1.0,47,0.00,,CLR,0.00,659.00,VWS V14.01,2013-05-01 13:01:00,
2013-05-01 09:06:00,57.4,37.3,30.48,NNW,337,0.0,3.0,47,0.00,,CLR,0.00,677.00,VWS V14.01,2013-05-01 13:06:00,
2013-05-01 09:11:00,58.1,38.0,30.48,NNW,342,0.0,0.0,47,0.00,,CLR,0.00,693.00,VWS V14.01,2013-05-01 13:11:00,
2013-05-01 09:16:00,59.0,38.8,30.48,NNW,342,0.0,1.0,47,0.00,,CLR,0.00,708.00,VWS V14.01,2013-05-01 13:16:00,
2013-05-01 09:21:00,59.0,37.1,30.48,NNW,341,0.0,2.0,44,0.00,,CLR,0.00,724.00,VWS V14.01,2013-05-01 13:21:00,
2013-05-01 09:26:00,59.3,36.8,30.48,North,5,0.0,3.0,43,0.00,,CLR,0.00,740.00,VWS V14.01,2013-05-01 13:26:00,
2013-05-01 09:31:00,59.5,37.0,30.48,North,5,0.0,1.0,43,0.00,,CLR,0.00,751.00,VWS V14.01,2013-05-01 13:31:00,
2013-05-01 09:36:00,60.4,37.2,30.48,North,5,0.0,1.0,42,0.00,,CLR,0.00,768.00,VWS V14.01,2013-05-01 13:36:00,
2013-05-01 09:41:00,61.3,38.6,30.48,North,5,0.0,1.0,43,0.00,,CLR,0.00,779.00,VWS V14.01,2013-05-01 13:41:00,
2013-05-01 09:46:00,62.2,38.8,30.48,North,5,0.0,1.0,42,0.00,,CLR,0.00,793.00,VWS V14.01,2013-05-01 13:46:00,
2013-05-01 09:51:00,63.1,37.1,30.48,NW,312,0.0,1.0,38,0.00,,CLR,0.00,842.00,VWS V14.01,2013-05-01 13:51:00,
2013-05-01 09:56:00,63.5,37.5,30.48,NW,324,0.0,4.0,38,0.00,,CLR,0.00,875.00,VWS V14.01,2013-05-01 13:56:00,
2013-05-01 10:01:00,63.9,37.1,30.48,SSW,203,4.0,4.0,37,0.00,,CLR,0.00,900.00,VWS V14.01,2013-05-01 14:01:00,
2013-05-01 10:06:00,64.4,38.9,30.48,SSW,193,1.0,4.0,39,0.00,,CLR,0.00,928.00,VWS V14.01,2013-05-01 14:06:00,
2013-05-01 10:11:00,65.1,38.2,30.48,NNW,335,0.0,1.0,37,0.00,,CLR,0.00,935.00,VWS V14.01,2013-05-01 14:11:00,
2013-05-01 10:16:00,65.6,40.0,30.48,North,5,1.0,3.0,39,0.00,,CLR,0.00,923.00,VWS V14.01,2013-05-01 14:16:00,
2013-05-01 10:22:00,64.6,37.1,30.48,ENE,61,0.0,2.0,36,0.00,,CLR,0.00,947.00,VWS V14.01,2013-05-01 14:22:00,
2013-05-01 10:27:00,64.7,35.7,30.49,ENE,66,0.0,4.0,34,0.00,,CLR,0.00,900.00,VWS V14.01,2013-05-01 14:27:00,
2013-05-01 10:32:00,65.1,38.2,30.48,ENE,66,0.0,0.0,37,0.00,,CLR,0.00,900.00,VWS V14.01,2013-05-01 14:32:00,
2013-05-01 10:37:00,65.6,37.2,30.48,ENE,69,0.0,2.0,35,0.00,,CLR,0.00,905.00,VWS V14.01,2013-05-01 14:37:00,
2013-05-01 10:42:00,66.1,36.9,30.48,ENE,70,0.0,0.0,34,0.00,,CLR,0.00,914.00,VWS V14.01,2013-05-01 14:42:00,
2013-05-01 10:47:00,66.4,36.5,30.48,NNE,22,1.0,3.0,33,0.00,,CLR,0.00,923.00,VWS V14.01,2013-05-01 14:47:00,
2013-05-01 10:52:00,66.6,34.2,30.48,North,360,0.0,0.0,30,0.00,,CLR,0.00,933.00,VWS V14.01,2013-05-01 14:52:00,
2013-05-01 10:57:00,66.9,34.5,30.48,West,262,3.0,4.0,30,0.00,,CLR,0.00,942.00,VWS V14.01,2013-05-01 14:57:00,
2013-05-01 11:02:00,67.7,36.8,30.48,West,264,0.0,3.0,32,0.00,,CLR,0.00,951.00,VWS V14.01,2013-05-01 15:02:00,
2013-05-01 11:07:00,67.9,35.3,30.48,SSW,194,0.0,5.0,30,0.00,,CLR,0.00,956.00,VWS V14.01,2013-05-01 15:07:00,
2013-05-01 11:12:00,68.5,36.7,30.47,South,181,6.0,7.0,31,0.00,,CLR,0.00,967.00,VWS V14.01,2013-05-01 15:12:00,
2013-05-01 11:17:00,68.2,34.8,30.48,SSW,194,0.0,7.0,29,0.00,,CLR,0.00,972.00,VWS V14.01,2013-05-01 15:17:00,
2013-05-01 11:22:00,68.5,35.9,30.47,South,173,3.0,3.0,30,0.00,,CLR,0.00,977.00,VWS V14.01,2013-05-01 15:22:00,
2013-05-01 11:27:00,68.7,36.0,30.47,South,188,0.0,4.0,30,0.00,,CLR,0.00,983.00,VWS V14.01,2013-05-01 15:27:00,
2013-05-01 11:32:00,68.8,37.8,30.47,NE,49,3.0,4.0,32,0.00,,CLR,0.00,983.00,VWS V14.01,2013-05-01 15:32:00,
2013-05-01 11:37:00,68.6,40.6,30.47,NNW,343,1.0,5.0,36,0.00,,CLR,0.00,990.00,VWS V14.01,2013-05-01 15:37:00,
2013-05-01 11:42:00,69.0,38.7,30.47,NNE,28,0.0,1.0,33,0.00,,CLR,0.00,995.00,VWS V14.01,2013-05-01 15:42:00,
2013-05-01 11:47:00,69.5,36.7,30.46,SW,220,0.0,5.0,30,0.00,,CLR,0.00,995.00,VWS V14.01,2013-05-01 15:47:00,
2013-05-01 11:52:00,69.6,36.0,30.47,SE,132,3.0,4.0,29,0.00,,CLR,0.00,1002.00,VWS V14.01,2013-05-01 15:52:00,
2013-05-01 11:57:00,69.8,37.0,30.46,SSE,159,2.0,5.0,30,0.00,,CLR,0.00,1002.00,VWS V14.01,2013-05-01 15:57:00,
2013-05-01 12:02:00,70.3,37.4,30.46,SE,145,0.0,4.0,30,0.00,,CLR,0.00,1009.00,VWS V14.01,2013-05-01 16:02:00,
2013-05-01 12:07:00,70.8,37.0,30.46,SE,134,3.0,6.0,29,0.00,,CLR,0.00,1013.00,VWS V14.01,2013-05-01 16:07:00,
2013-05-01 12:12:00,70.8,37.9,30.46,SSW,198,4.0,5.0,30,0.00,,CLR,0.00,1009.00,VWS V14.01,2013-05-01 16:12:00,
2013-05-01 12:17:00,70.7,36.9,30.46,SE,130,0.0,10.0,29,0.00,,CLR,0.00,1013.00,VWS V14.01,2013-05-01 16:17:00,
2013-05-01 12:22:00,70.7,36.9,30.46,SW,229,1.0,5.0,29,0.00,,CLR,0.00,1013.00,VWS V14.01,2013-05-01 16:22:00,
2013-05-01 12:27:00,70.7,36.9,30.46,SE,124,4.0,5.0,29,0.00,,CLR,0.00,1013.00,VWS V14.01,2013-05-01 16:27:00,
2013-05-01 12:32:00,70.6,35.9,30.45,SSE,165,1.0,4.0,28,0.00,,CLR,0.00,1011.00,VWS V14.01,2013-05-01 16:32:00,
2013-05-01 12:37:00,71.2,38.2,30.46,South,183,2.0,7.0,30,0.00,,CLR,0.00,1011.00,VWS V14.01,2013-05-01 16:37:00,
2013-05-01 12:43:00,71.3,36.5,30.45,NNE,30,1.0,3.0,28,0.00,,CLR,0.00,1011.00,VWS V14.01,2013-05-01 16:43:00,
2013-05-01 12:48:00,71.9,41.3,30.45,SW,217,0.0,5.0,33,0.00,,CLR,0.00,1007.00,VWS V14.01,2013-05-01 16:48:00,
2013-05-01 12:53:00,71.9,36.1,30.45,SSW,201,0.0,5.0,27,0.00,,CLR,0.00,1009.00,VWS V14.01,2013-05-01 16:53:00,
2013-05-01 12:58:00,71.8,37.9,30.45,NNE,13,4.0,6.0,29,0.00,,CLR,0.00,1005.00,VWS V14.01,2013-05-01 16:58:00,
2013-05-01 13:03:00,71.7,36.9,30.45,ENE,78,0.0,4.0,28,0.00,,CLR,0.00,1000.00,VWS V14.01,2013-05-01 17:03:00,
2013-05-01 13:08:00,72.2,37.3,30.44,SSE,164,1.0,6.0,28,0.00,,CLR,0.00,998.00,VWS V14.01,2013-05-01 17:08:00,
2013-05-01 13:13:00,72.8,36.9,30.44,WSW,242,3.0,5.0,27,0.00,,CLR,0.00,997.00,VWS V14.01,2013-05-01 17:13:00,
2013-05-01 13:18:00,72.4,36.6,30.44,ENE,69,2.0,6.0,27,0.00,,CLR,0.00,990.00,VWS V14.01,2013-05-01 17:18:00,
2013-05-01 13:23:00,72.5,41.0,30.44,East,84,1.0,3.0,32,0.00,,CLR,0.00,986.00,VWS V14.01,2013-05-01 17:23:00,
2013-05-01 13:28:00,72.4,37.5,30.44,South,176,3.0,4.0,28,0.00,,CLR,0.00,977.00,VWS V14.01,2013-05-01 17:28:00,
2013-05-01 13:33:00,72.9,38.8,30.44,SW,215,3.0,5.0,29,0.00,,CLR,0.00,976.00,VWS V14.01,2013-05-01 17:33:00,
2013-05-01 13:38:00,72.6,37.7,30.44,South,176,4.0,10.0,28,0.00,,CLR,0.00,967.00,VWS V14.01,2013-05-01 17:38:00,
2013-05-01 13:43:00,72.6,37.7,30.44,SSE,153,2.0,6.0,28,0.00,,CLR,0.00,963.00,VWS V14.01,2013-05-01 17:43:00,
2013-05-01 13:48:00,72.4,36.6,30.44,SW,219,4.0,6.0,27,0.00,,CLR,0.00,956.00,VWS V14.01,2013-05-01 17:48:00,
2013-05-01 13:53:00,72.6,36.7,30.44,SSW,207,4.0,9.0,27,0.00,,CLR,0.00,949.00,VWS V14.01,2013-05-01 17:53:00,
2013-05-01 13:58:00,72.7,39.5,30.44,South,176,0.0,10.0,30,0.00,,CLR,0.00,946.00,VWS V14.01,2013-05-01 17:58:00,
2013-05-01 14:03:00,73.1,39.0,30.44,South,189,7.0,7.0,29,0.00,,CLR,0.00,935.00,VWS V14.01,2013-05-01 18:03:00,
2013-05-01 14:08:00,73.0,37.1,30.44,ESE,119,3.0,7.0,27,0.00,,CLR,0.00,926.00,VWS V14.01,2013-05-01 18:08:00,
2013-05-01 14:13:00,72.9,37.9,30.44,ENE,57,2.0,4.0,28,0.00,,CLR,0.00,919.00,VWS V14.01,2013-05-01 18:13:00,
2013-05-01 14:18:00,72.5,38.5,30.44,South,191,2.0,7.0,29,0.00,,CLR,0.00,907.00,VWS V14.01,2013-05-01 18:18:00,
2013-05-01 14:23:00,72.5,38.5,30.44,ENE,73,1.0,5.0,29,0.00,,CLR,0.00,898.00,VWS V14.01,2013-05-01 18:23:00,
2013-05-01 14:28:00,73.2,41.6,30.44,SE,136,2.0,5.0,32,0.00,,CLR,0.00,882.00,VWS V14.01,2013-05-01 18:28:00,
2013-05-01 14:33:00,73.8,42.1,30.44,SSE,147,1.0,5.0,32,0.00,,CLR,0.00,870.00,VWS V14.01,2013-05-01 18:33:00,
2013-05-01 14:38:00,73.7,40.4,30.44,WSW,246,0.0,6.0,30,0.00,,CLR,0.00,865.00,VWS V14.01,2013-05-01 18:38:00,
2013-05-01 14:43:00,74.0,42.3,30.44,SSW,200,5.0,10.0,32,0.00,,CLR,0.00,858.00,VWS V14.01,2013-05-01 18:43:00,
2013-05-01 14:48:00,73.9,41.4,30.44,East,90,1.0,10.0,31,0.00,,CLR,0.00,842.00,VWS V14.01,2013-05-01 18:48:00,
2013-05-01 14:53:00,73.7,41.2,30.44,ESE,109,2.0,11.0,31,0.00,,CLR,0.00,830.00,VWS V14.01,2013-05-01 18:53:00,
2013-05-01 14:58:00,73.3,41.7,30.44,SSE,161,4.0,15.0,32,0.00,,CLR,0.00,819.00,VWS V14.01,2013-05-01 18:58:00,
2013-05-01 15:03:00,73.2,42.4,30.44,SE,136,4.0,7.0,33,0.00,,CLR,0.00,810.00,VWS V14.01,2013-05-01 19:03:00,
2013-05-01 15:09:00,72.9,40.5,30.44,SSE,157,2.0,11.0,31,0.00,,CLR,0.00,796.00,VWS V14.01,2013-05-01 19:09:00,
2013-05-01 15:14:00,72.7,40.3,30.44,ESE,119,0.0,5.0,31,0.00,,CLR,0.00,786.00,VWS V14.01,2013-05-01 19:14:00,
2013-05-01 15:19:00,72.2,40.7,30.44,SSW,203,1.0,5.0,32,0.00,,CLR,0.00,773.00,VWS V14.01,2013-05-01 19:19:00,
2013-05-01 15:24:00,72.5,41.0,30.44,NE,56,2.0,5.0,32,0.00,,CLR,0.00,759.00,VWS V14.01,2013-05-01 19:24:00,
2013-05-01 15:29:00,72.1,39.8,30.44,South,185,5.0,8.0,31,0.00,,CLR,0.00,751.00,VWS V14.01,2013-05-01 19:29:00,
2013-05-01 15:34:00,72.0,38.9,30.44,South,188,4.0,5.0,30,0.00,,CLR,0.00,735.00,VWS V14.01,2013-05-01 19:34:00,
2013-05-01 15:39:00,71.9,40.5,30.44,South,173,0.0,8.0,32,0.00,,CLR,0.00,724.00,VWS V14.01,2013-05-01 19:39:00,
2013-05-01 15:44:00,72.0,39.7,30.44,SSE,168,0.0,4.0,31,0.00,,CLR,0.00,710.00,VWS V14.01,2013-05-01 19:44:00,
2013-05-01 15:49:00,72.1,38.1,30.44,South,187,5.0,11.0,29,0.00,,CLR,0.00,696.00,VWS V14.01,2013-05-01 19:49:00,
2013-05-01 15:54:00,71.5,39.3,30.44,ESE,114,0.0,4.0,31,0.00,,CLR,0.00,684.00,VWS V14.01,2013-05-01 19:54:00,
2013-05-01 15:59:00,71.6,38.6,30.44,SSW,204,0.0,12.0,30,0.00,,CLR,0.00,670.00,VWS V14.01,2013-05-01 19:59:00,
2013-05-01 16:04:00,71.3,38.3,30.44,NW,310,6.0,10.0,30,0.00,,CLR,0.00,654.00,VWS V14.01,2013-05-01 20:04:00,
2013-05-01 16:09:00,70.6,37.7,30.44,East,90,0.0,10.0,30,0.00,,CLR,0.00,643.00,VWS V14.01,2013-05-01 20:09:00,
2013-05-01 16:14:00,70.6,38.5,30.44,ESE,117,3.0,10.0,31,0.00,,CLR,0.00,629.00,VWS V14.01,2013-05-01 20:14:00,
2013-05-01 16:19:00,70.8,37.9,30.44,SSW,213,2.0,10.0,30,0.00,,CLR,0.00,615.00,VWS V14.01,2013-05-01 20:19:00,
2013-05-01 16:24:00,70.7,37.8,30.44,SSE,154,0.0,5.0,30,0.00,,CLR,0.00,596.00,VWS V14.01,2013-05-01 20:24:00,
2013-05-01 16:29:00,70.6,37.7,30.44,SSE,166,1.0,5.0,30,0.00,,CLR,0.00,580.00,VWS V14.01,2013-05-01 20:29:00,
2013-05-01 16:34:00,70.8,37.9,30.44,South,171,0.0,5.0,30,0.00,,CLR,0.00,564.00,VWS V14.01,2013-05-01 20:34:00,
2013-05-01 16:39:00,70.7,36.9,30.44,SSE,168,1.0,5.0,29,0.00,,CLR,0.00,541.00,VWS V14.01,2013-05-01 20:39:00,
2013-05-01 16:44:00,70.5,37.6,30.45,WSW,242,6.0,13.0,30,0.00,,CLR,0.00,533.00,VWS V14.01,2013-05-01 20:44:00,
2013-05-01 16:49:00,70.1,38.9,30.45,SE,134,3.0,13.0,32,0.00,,CLR,0.00,515.00,VWS V14.01,2013-05-01 20:49:00,
2013-05-01 16:54:00,69.7,37.7,30.45,ESE,118,3.0,4.0,31,0.00,,CLR,0.00,501.00,VWS V14.01,2013-05-01 20:54:00,
2013-05-01 16:59:00,69.5,38.4,30.45,SSE,161,1.0,4.0,32,0.00,,CLR,0.00,485.00,VWS V14.01,2013-05-01 20:59:00,
2013-05-01 17:04:00,69.5,38.4,30.45,South,191,5.0,7.0,32,0.00,,CLR,0.00,466.00,VWS V14.01,2013-05-01 21:04:00,
2013-05-01 17:09:00,69.3,37.4,30.45,South,171,2.0,7.0,31,0.00,,CLR,0.00,392.00,VWS V14.01,2013-05-01 21:09:00,
2013-05-01 17:14:00,69.0,37.1,30.45,SSW,194,0.0,5.0,31,0.00,,CLR,0.00,353.00,VWS V14.01,2013-05-01 21:14:00,
2013-05-01 17:19:00,68.8,37.8,30.45,ESE,123,0.0,5.0,32,0.00,,CLR,0.00,406.00,VWS V14.01,2013-05-01 21:19:00,
2013-05-01 17:24:00,68.8,37.0,30.45,South,188,0.0,7.0,31,0.00,,CLR,0.00,223.00,VWS V14.01,2013-05-01 21:24:00,
2013-05-01 17:29:00,68.5,36.7,30.45,South,182,1.0,7.0,31,0.00,,CLR,0.00,144.00,VWS V14.01,2013-05-01 21:29:00,
2013-05-01 17:34:00,67.9,37.0,30.45,South,191,0.0,6.0,32,0.00,,CLR,0.00,255.00,VWS V14.01,2013-05-01 21:34:00,
2013-05-01 17:39:00,67.4,36.5,30.45,South,173,0.0,6.0,32,0.00,,CLR,0.00,197.00,VWS V14.01,2013-05-01 21:39:00,
2013-05-01 17:44:00,67.0,37.0,30.45,SSE,161,0.0,2.0,33,0.00,,CLR,0.00,209.00,VWS V14.01,2013-05-01 21:44:00,
2013-05-01 17:50:00,66.8,36.8,30.45,South,171,0.0,4.0,33,0.00,,CLR,0.00,149.00,VWS V14.01,2013-05-01 21:50:00,
2013-05-01 17:55:00,66.4,35.7,30.45,SSE,161,0.0,4.0,32,0.00,,CLR,0.00,193.00,VWS V14.01,2013-05-01 21:55:00,
2013-05-01 18:00:00,66.1,36.9,30.46,SSE,159,0.0,4.0,34,0.00,,CLR,0.00,37.00,VWS V14.01,2013-05-01 22:00:00,
2013-05-01 18:05:00,65.9,36.8,30.46,SSW,202,5.0,5.0,34,0.00,,CLR,0.00,35.00,VWS V14.01,2013-05-01 22:05:00,
2013-05-01 18:10:00,65.6,35.8,30.46,SSE,159,0.0,5.0,33,0.00,,CLR,0.00,33.00,VWS V14.01,2013-05-01 22:10:00,
2013-05-01 18:15:00,65.4,35.6,30.46,ESE,113,1.0,3.0,33,0.00,,CLR,0.00,32.00,VWS V14.01,2013-05-01 22:15:00,
2013-05-01 18:20:00,65.2,36.2,30.46,South,188,0.0,5.0,34,0.00,,CLR,0.00,32.00,VWS V14.01,2013-05-01 22:20:00,
2013-05-01 18:25:00,64.8,35.8,30.46,SSW,194,0.0,6.0,34,0.00,,CLR,0.00,30.00,VWS V14.01,2013-05-01 22:25:00,
2013-05-01 18:30:00,64.4,35.5,30.46,South,174,0.0,6.0,34,0.00,,CLR,0.00,28.00,VWS V14.01,2013-05-01 22:30:00,
2013-05-01 18:35:00,64.1,35.9,30.46,South,174,0.0,1.0,35,0.00,,CLR,0.00,28.00,VWS V14.01,2013-05-01 22:35:00,
2013-05-01 18:40:00,63.8,35.7,30.47,South,174,0.0,1.0,35,0.00,,CLR,0.00,26.00,VWS V14.01,2013-05-01 22:40:00,
2013-05-01 18:45:00,63.6,36.2,30.47,ESE,105,0.0,3.0,36,0.00,,CLR,0.00,25.00,VWS V14.01,2013-05-01 22:45:00,
2013-05-01 18:50:00,63.4,36.7,30.47,ESE,106,0.0,3.0,37,0.00,,CLR,0.00,23.00,VWS V14.01,2013-05-01 22:50:00,
2013-05-01 18:55:00,63.0,35.7,30.47,ENE,76,0.0,2.0,36,0.00,,CLR,0.00,23.00,VWS V14.01,2013-05-01 22:55:00,
2013-05-01 19:00:00,62.7,35.4,30.47,ENE,76,0.0,2.0,36,0.00,,CLR,0.00,21.00,VWS V14.01,2013-05-01 23:00:00,
2013-05-01 19:05:00,62.4,35.1,30.47,SE,133,3.0,3.0,36,0.00,,CLR,0.00,19.00,VWS V14.01,2013-05-01 23:05:00,
2013-05-01 19:10:00,62.0,35.5,30.47,SE,134,0.0,3.0,37,0.00,,CLR,0.00,18.00,VWS V14.01,2013-05-01 23:10:00,
2013-05-01 19:15:00,61.6,35.1,30.47,SE,134,0.0,3.0,37,0.00,,CLR,0.00,16.00,VWS V14.01,2013-05-01 23:15:00,
2013-05-01 19:20:00,61.2,35.4,30.47,NE,55,0.0,3.0,38,0.00,,CLR,0.00,14.00,VWS V14.01,2013-05-01 23:20:00,
2013-05-01 19:25:00,60.9,35.1,30.47,NE,55,0.0,1.0,38,0.00,,CLR,0.00,12.00,VWS V14.01,2013-05-01 23:25:00,
2013-05-01 19:30:00,60.5,35.4,30.47,NE,55,0.0,1.0,39,0.00,,CLR,0.00,7.00,VWS V14.01,2013-05-01 23:30:00,
2013-05-01 19:35:00,60.1,35.7,30.47,NE,55,0.0,1.0,40,0.00,,CLR,0.00,5.00,VWS V14.01,2013-05-01 23:35:00,
2013-05-01 19:40:00,59.5,35.2,30.47,SE,128,0.0,1.0,40,0.00,,CLR,0.00,0.00,VWS V14.01,2013-05-01 23:40:00,
2013-05-01 19:45:00,59.0,36.0,30.46,SE,128,0.0,0.0,42,0.00,,CLR,0.00,0.00,VWS V14.01,2013-05-01 23:45:00,
2013-05-01 19:50:00,58.7,34.5,30.47,SE,128,0.0,2.0,40,0.00,,CLR,0.00,0.00,VWS V14.01,2013-05-01 23:50:00,
2013-05-01 19:55:00,58.3,34.7,30.46,SE,128,0.0,3.0,41,0.00,,CLR,0.00,0.00,VWS V14.01,2013-05-01 23:55:00,
2013-05-01 20:00:00,57.9,34.4,30.46,SE,128,0.0,3.0,41,0.00,,CLR,0.00,0.00,VWS V14.01,2013-05-02 00:00:00,
2013-05-01 20:05:00,57.7,34.2,30.46,South,180,0.0,5.0,41,0.00,,CLR,0.00,0.00,VWS V14.01,2013-05-02 00:05:00,
2013-05-01 20:10:00,57.4,33.9,30.45,South,180,0.0,5.0,41,0.00,,CLR,0.00,0.00,VWS V14.01,2013-05-02 00:10:00,
2013-05-01 20:15:00,57.1,33.0,30.46,South,180,0.0,2.0,40,0.00,,CLR,0.00,0.00,VWS V14.01,2013-05-02 00:15:00,
2013-05-01 20:20:00,56.8,33.4,30.46,South,181,0.0,4.0,41,0.00,,CLR,0.00,0.00,VWS V14.01,2013-05-02 00:20:00,
2013-05-01 20:25:00,56.6,33.2,30.46,South,181,1.0,3.0,41,0.00,,CLR,0.00,0.00,VWS V14.01,2013-05-02 00:25:00,
2013-05-01 20:30:00,56.3,33.5,30.47,South,181,0.0,0.0,42,0.00,,CLR,0.00,0.00,VWS V14.01,2013-05-02 00:30:00,
2013-05-01 20:35:00,56.1,33.3,30.47,South,181,0.0,0.0,42,0.00,,CLR,0.00,0.00,VWS V14.01,2013-05-02 00:35:00,
2013-05-01 20:40:00,55.8,33.7,30.47,South,181,0.0,0.0,43,0.00,,CLR,0.00,0.00,VWS V14.01,2013-05-02 00:40:00,
2013-05-01 20:45:00,55.5,32.2,30.47,South,181,0.0,0.0,41,0.00,,CLR,0.00,0.00,VWS V14.01,2013-05-02 00:45:00,
2013-05-01 20:50:00,55.2,32.5,30.47,South,181,0.0,0.0,42,0.00,,CLR,0.00,0.00,VWS V14.01,2013-05-02 00:50:00,
2013-05-01 20:55:00,54.9,32.3,30.47,South,181,0.0,0.0,42,0.00,,CLR,0.00,0.00,VWS V14.01,2013-05-02 00:55:00,
2013-05-01 21:00:00,54.5,32.5,30.47,South,181,0.0,0.0,43,0.00,,CLR,0.00,0.00,VWS V14.01,2013-05-02 01:00:00,
2013-05-01 21:05:00,54.1,32.7,30.47,South,181,0.0,0.0,44,0.00,,CLR,0.00,0.00,VWS V14.01,2013-05-02 01:05:00,
2013-05-01 21:10:00,53.8,31.9,30.47,South,181,0.0,0.0,43,0.00,,CLR,0.00,0.00,VWS V14.01,2013-05-02 01:10:00,
2013-05-01 21:16:00,53.5,32.1,30.47,South,181,0.0,0.0,44,0.00,,CLR,0.00,0.00,VWS V14.01,2013-05-02 01:16:00,
2013-05-01 21:21:00,53.3,32.0,30.47,South,181,0.0,0.0,44,0.00,,CLR,0.00,0.00,VWS V14.01,2013-05-02 01:21:00,
2013-05-01 21:26:00,53.2,31.3,30.47,South,181,0.0,0.0,43,0.00,,CLR,0.00,0.00,VWS V14.01,2013-05-02 01:26:00,
2013-05-01 21:31:00,53.0,31.7,30.47,South,181,0.0,0.0,44,0.00,,CLR,0.00,0.00,VWS V14.01,2013-05-02 01:31:00,
2013-05-01 21:36:00,52.7,31.4,30.47,South,181,0.0,0.0,44,0.00,,CLR,0.00,0.00,VWS V14.01,2013-05-02 01:36:00,
2013-05-01 21:41:00,52.5,31.2,30.47,South,181,0.0,0.0,44,0.00,,CLR,0.00,0.00,VWS V14.01,2013-05-02 01:41:00,
2013-05-01 21:46:00,52.3,31.6,30.48,South,181,0.0,0.0,45,0.00,,CLR,0.00,0.00,VWS V14.01,2013-05-02 01:46:00,
2013-05-01 21:51:00,52.0,31.3,30.48,South,181,0.0,0.0,45,0.00,,CLR,0.00,0.00,VWS V14.01,2013-05-02 01:51:00,
2013-05-01 21:56:00,51.8,31.7,30.48,South,181,0.0,0.0,46,0.00,,CLR,0.00,0.00,VWS V14.01,2013-05-02 01:56:00,
2013-05-01 22:01:00,51.6,32.0,30.48,South,181,0.0,0.0,47,0.00,,CLR,0.00,0.00,VWS V14.01,2013-05-02 02:01:00,
2013-05-01 22:06:00,51.5,32.0,30.48,South,181,0.0,0.0,47,0.00,,CLR,0.00,0.00,VWS V14.01,2013-05-02 02:06:00,
2013-05-01 22:11:00,51.6,32.6,30.48,South,181,0.0,0.0,48,0.00,,CLR,0.00,0.00,VWS V14.01,2013-05-02 02:11:00,
2013-05-01 22:16:00,51.7,32.1,30.47,South,181,0.0,0.0,47,0.00,,CLR,0.00,0.00,VWS V14.01,2013-05-02 02:16:00,
2013-05-01 22:21:00,51.7,32.7,30.47,South,181,0.0,0.0,48,0.00,,CLR,0.00,0.00,VWS V14.01,2013-05-02 02:21:00,
2013-05-01 22:26:00,51.6,32.6,30.47,South,181,0.0,0.0,48,0.00,,CLR,0.00,0.00,VWS V14.01,2013-05-02 02:26:00,
2013-05-01 22:31:00,51.6,32.0,30.47,South,181,0.0,0.0,47,0.00,,CLR,0.00,0.00,VWS V14.01,2013-05-02 02:31:00,
2013-05-01 22:36:00,51.4,32.4,30.47,South,181,0.0,0.0,48,0.00,,CLR,0.00,0.00,VWS V14.01,2013-05-02 02:36:00,
2013-05-01 22:41:00,51.3,32.3,30.47,South,181,0.0,0.0,48,0.00,,CLR,0.00,0.00,VWS V14.01,2013-05-02 02:41:00,
2013-05-01 22:46:00,51.1,32.6,30.47,South,181,0.0,0.0,49,0.00,,CLR,0.00,0.00,VWS V14.01,2013-05-02 02:46:00,
2013-05-01 22:51:00,50.9,32.9,30.47,South,181,0.0,0.0,50,0.00,,CLR,0.00,0.00,VWS V14.01,2013-05-02 02:51:00,
2013-05-01 22:56:00,50.6,33.2,30.46,South,181,0.0,0.0,51,0.00,,CLR,0.00,0.00,VWS V14.01,2013-05-02 02:56:00,
2013-05-01 23:01:00,50.4,33.9,30.46,South,181,0.0,0.0,53,0.00,,CLR,0.00,0.00,VWS V14.01,2013-05-02 03:01:00,
2013-05-01 23:06:00,50.2,33.7,30.46,South,181,0.0,0.0,53,0.00,,CLR,0.00,0.00,VWS V14.01,2013-05-02 03:06:00,
2013-05-01 23:11:00,50.1,34.1,30.46,South,181,0.0,0.0,54,0.00,,CLR,0.00,0.00,VWS V14.01,2013-05-02 03:11:00,
2013-05-01 23:16:00,50.1,34.6,30.46,South,181,0.0,0.0,55,0.00,,CLR,0.00,0.00,VWS V14.01,2013-05-02 03:16:00,
2013-05-01 23:21:00,50.1,33.7,30.46,South,181,0.0,0.0,53,0.00,,CLR,0.00,0.00,VWS V14.01,2013-05-02 03:21:00,
2013-05-01 23:26:00,50.1,32.7,30.46,South,181,0.0,0.0,51,0.00,,CLR,0.00,0.00,VWS V14.01,2013-05-02 03:26:00,
2013-05-01 23:31:00,50.2,32.8,30.46,South,181,0.0,0.0,51,0.00,,CLR,0.00,0.00,VWS V14.01,2013-05-02 03:31:00,
2013-05-01 23:37:00,50.3,32.4,30.46,South,181,0.0,0.0,50,0.00,,CLR,0.00,0.00,VWS V14.01,2013-05-02 03:37:00,
2013-05-01 23:42:00,50.4,32.5,30.46,South,181,0.0,0.0,50,0.00,,CLR,0.00,0.00,VWS V14.01,2013-05-02 03:42:00,
2013-05-01 23:47:00,50.6,32.2,30.46,South,181,0.0,0.0,49,0.00,,CLR,0.00,0.00,VWS V14.01,2013-05-02 03:47:00,
2013-05-01 23:52:00,50.8,32.3,30.46,South,181,0.0,0.0,49,0.00,,CLR,0.00,0.00,VWS V14.01,2013-05-02 03:52:00,
2013-05-01 23:57:00,51.2,32.7,30.46,South,181,0.0,0.0,49,0.00,,CLR,0.00,0.00,VWS V14.01,2013-05-02 03:57:00,